Year,Month,Day,Hour,Minute,Value (Times are PST for temperature in C)
2015,07,19,00,00,21.00
2015,07,19,00,01,21.00
2015,07,19,00,02,21.00
2015,07,19,00,03,21.00
2015,07,19,00,04,21.00
2015,07,19,00,05,21.00
2015,07,19,00,06,21.00
2015,07,19,00,07,21.00
2015,07,19,00,08,21.00
2015,07,19,00,09,21.00
2015,07,19,00,10,21.00
2015,07,19,00,11,20.90
2015,07,19,00,12,20.90
2015,07,19,00,13,20.90
2015,07,19,00,14,20.80
2015,07,19,00,15,20.80
2015,07,19,00,16,20.80
2015,07,19,00,17,20.70
2015,07,19,00,18,20.70
2015,07,19,00,19,20.70
2015,07,19,00,20,20.70
2015,07,19,00,21,20.70
2015,07,19,00,22,20.70
2015,07,19,00,23,20.60
2015,07,19,00,24,20.60
2015,07,19,00,25,20.60
2015,07,19,00,26,20.60
2015,07,19,00,27,20.60
2015,07,19,00,28,20.60
2015,07,19,00,29,20.60
2015,07,19,00,30,20.50
2015,07,19,00,31,20.50
2015,07,19,00,32,20.50
2015,07,19,00,33,20.40
2015,07,19,00,34,20.40
2015,07,19,00,35,20.40
2015,07,19,00,36,20.40
2015,07,19,00,37,20.40
2015,07,19,00,38,20.40
2015,07,19,00,39,20.40
2015,07,19,00,40,20.40
2015,07,19,00,41,20.40
2015,07,19,00,42,20.40
2015,07,19,00,43,20.40
2015,07,19,00,44,20.40
2015,07,19,00,45,20.40
2015,07,19,00,46,20.30
2015,07,19,00,47,20.30
2015,07,19,00,48,20.30
2015,07,19,00,49,20.30
2015,07,19,00,50,20.20
2015,07,19,00,51,20.20
2015,07,19,00,52,20.20
2015,07,19,00,53,20.20
2015,07,19,00,54,20.20
2015,07,19,00,55,20.20
2015,07,19,00,56,20.20
2015,07,19,00,57,20.10
2015,07,19,00,58,20.10
2015,07,19,00,59,20.10
2015,07,19,01,00,20.10
2015,07,19,01,01,20.10
2015,07,19,01,02,20.10
2015,07,19,01,03,20.00
2015,07,19,01,04,20.00
2015,07,19,01,05,19.90
2015,07,19,01,06,19.90
2015,07,19,01,07,19.90
2015,07,19,01,08,19.90
2015,07,19,01,09,19.90
2015,07,19,01,10,19.90
2015,07,19,01,11,19.90
2015,07,19,01,12,19.90
2015,07,19,01,13,19.90
2015,07,19,01,14,19.90
2015,07,19,01,15,19.80
2015,07,19,01,16,19.80
2015,07,19,01,17,19.80
2015,07,19,01,18,19.80
2015,07,19,01,19,19.70
2015,07,19,01,20,19.70
2015,07,19,01,21,19.70
2015,07,19,01,22,19.70
2015,07,19,01,23,19.60
2015,07,19,01,24,19.60
2015,07,19,01,25,19.60
2015,07,19,01,26,19.60
2015,07,19,01,27,19.60
2015,07,19,01,28,19.60
2015,07,19,01,29,19.60
2015,07,19,01,30,19.60
2015,07,19,01,31,19.60
2015,07,19,01,32,19.60
2015,07,19,01,33,19.60
2015,07,19,01,34,19.60
2015,07,19,01,35,19.60
2015,07,19,01,36,19.60
2015,07,19,01,37,19.60
2015,07,19,01,38,19.60
2015,07,19,01,39,19.60
2015,07,19,01,40,19.60
2015,07,19,01,41,19.50
2015,07,19,01,42,19.50
2015,07,19,01,43,19.50
2015,07,19,01,44,19.60
2015,07,19,01,45,19.60
2015,07,19,01,46,19.50
2015,07,19,01,47,19.50
2015,07,19,01,48,19.50
2015,07,19,01,49,19.50
2015,07,19,01,50,19.40
2015,07,19,01,51,19.40
2015,07,19,01,52,19.40
2015,07,19,01,53,19.40
2015,07,19,01,54,19.40
2015,07,19,01,55,19.40
2015,07,19,01,56,19.30
2015,07,19,01,57,19.30
2015,07,19,01,58,19.30
2015,07,19,01,59,19.30
2015,07,19,02,00,19.20
2015,07,19,02,01,19.20
2015,07,19,02,02,19.20
2015,07,19,02,03,19.10
2015,07,19,02,04,19.10
2015,07,19,02,05,19.00
2015,07,19,02,06,19.00
2015,07,19,02,07,19.00
2015,07,19,02,08,18.90
2015,07,19,02,09,18.90
2015,07,19,02,10,18.90
2015,07,19,02,11,18.90
2015,07,19,02,12,18.90
2015,07,19,02,13,18.80
2015,07,19,02,14,18.80
2015,07,19,02,15,18.80
2015,07,19,02,16,18.70
2015,07,19,02,17,18.70
2015,07,19,02,18,18.70
2015,07,19,02,19,18.70
2015,07,19,02,20,18.70
2015,07,19,02,21,18.60
2015,07,19,02,22,18.60
2015,07,19,02,23,18.60
2015,07,19,02,24,18.60
2015,07,19,02,25,18.60
2015,07,19,02,26,18.60
2015,07,19,02,27,18.60
2015,07,19,02,28,18.60
2015,07,19,02,29,18.60
2015,07,19,02,30,18.60
2015,07,19,02,31,18.60
2015,07,19,02,32,18.60
2015,07,19,02,33,18.60
2015,07,19,02,34,18.70
2015,07,19,02,35,18.70
2015,07,19,02,36,18.70
2015,07,19,02,37,18.70
2015,07,19,02,38,18.70
2015,07,19,02,39,18.70
2015,07,19,02,40,18.70
2015,07,19,02,41,18.70
2015,07,19,02,42,18.70
2015,07,19,02,43,18.70
2015,07,19,02,44,18.70
2015,07,19,02,45,18.70
2015,07,19,02,46,18.70
2015,07,19,02,47,18.70
2015,07,19,02,48,18.70
2015,07,19,02,49,18.60
2015,07,19,02,50,18.60
2015,07,19,02,51,18.60
2015,07,19,02,52,18.60
2015,07,19,02,53,18.50
2015,07,19,02,54,18.50
2015,07,19,02,55,18.40
2015,07,19,02,56,18.40
2015,07,19,02,57,18.30
2015,07,19,02,58,18.30
2015,07,19,02,59,18.30
2015,07,19,03,00,18.30
2015,07,19,03,01,18.20
2015,07,19,03,02,18.20
2015,07,19,03,03,18.20
2015,07,19,03,04,18.20
2015,07,19,03,05,18.20
2015,07,19,03,06,18.20
2015,07,19,03,07,18.20
2015,07,19,03,08,18.20
2015,07,19,03,09,18.10
2015,07,19,03,10,18.10
2015,07,19,03,11,18.10
2015,07,19,03,12,18.10
2015,07,19,03,13,18.10
2015,07,19,03,14,18.00
2015,07,19,03,15,18.00
2015,07,19,03,16,18.00
2015,07,19,03,17,18.00
2015,07,19,03,18,18.00
2015,07,19,03,19,18.10
2015,07,19,03,20,18.10
2015,07,19,03,21,18.10
2015,07,19,03,22,18.10
2015,07,19,03,23,18.10
2015,07,19,03,24,18.10
2015,07,19,03,25,18.10
2015,07,19,03,26,18.10
2015,07,19,03,27,18.10
2015,07,19,03,28,18.10
2015,07,19,03,29,18.10
2015,07,19,03,30,18.10
2015,07,19,03,31,18.10
2015,07,19,03,32,18.20
2015,07,19,03,33,18.20
2015,07,19,03,34,18.10
2015,07,19,03,35,18.20
2015,07,19,03,36,18.10
2015,07,19,03,37,18.10
2015,07,19,03,38,18.10
2015,07,19,03,39,18.10
2015,07,19,03,40,18.10
2015,07,19,03,41,18.10
2015,07,19,03,42,18.10
2015,07,19,03,43,18.10
2015,07,19,03,44,18.10
2015,07,19,03,45,18.00
2015,07,19,03,46,18.00
2015,07,19,03,47,18.00
2015,07,19,03,48,17.90
2015,07,19,03,49,17.90
2015,07,19,03,50,17.90
2015,07,19,03,51,17.90
2015,07,19,03,52,17.90
2015,07,19,03,53,17.90
2015,07,19,03,54,17.90
2015,07,19,03,55,17.90
2015,07,19,03,56,17.90
2015,07,19,03,57,17.90
2015,07,19,03,58,17.90
2015,07,19,03,59,17.90
2015,07,19,04,00,17.90
2015,07,19,04,01,17.90
2015,07,19,04,02,17.90
2015,07,19,04,03,17.90
2015,07,19,04,04,17.90
2015,07,19,04,05,17.90
2015,07,19,04,06,17.90
2015,07,19,04,07,17.90
2015,07,19,04,08,17.80
2015,07,19,04,09,17.80
2015,07,19,04,10,17.80
2015,07,19,04,11,17.80
2015,07,19,04,12,17.80
2015,07,19,04,13,17.80
2015,07,19,04,14,17.80
2015,07,19,04,15,17.80
2015,07,19,04,16,17.80
2015,07,19,04,17,17.80
2015,07,19,04,18,17.80
2015,07,19,04,19,17.80
2015,07,19,04,20,17.80
2015,07,19,04,21,17.80
2015,07,19,04,22,17.70
2015,07,19,04,23,17.70
2015,07,19,04,24,17.70
2015,07,19,04,25,17.70
2015,07,19,04,26,17.60
2015,07,19,04,27,17.50
2015,07,19,04,28,17.40
2015,07,19,04,29,17.40
2015,07,19,04,30,17.30
2015,07,19,04,31,17.20
2015,07,19,04,32,17.10
2015,07,19,04,33,17.10
2015,07,19,04,34,17.10
2015,07,19,04,35,17.10
2015,07,19,04,36,17.10
2015,07,19,04,37,17.10
2015,07,19,04,38,17.10
2015,07,19,04,39,17.10
2015,07,19,04,40,17.20
2015,07,19,04,41,17.20
2015,07,19,04,42,17.20
2015,07,19,04,43,17.30
2015,07,19,04,44,17.30
2015,07,19,04,45,17.30
2015,07,19,04,46,17.20
2015,07,19,04,47,17.20
2015,07,19,04,48,17.20
2015,07,19,04,49,17.20
2015,07,19,04,50,17.20
2015,07,19,04,51,17.20
2015,07,19,04,52,17.20
2015,07,19,04,53,17.20
2015,07,19,04,54,17.20
2015,07,19,04,55,17.20
2015,07,19,04,56,17.30
2015,07,19,04,57,17.30
2015,07,19,04,58,17.30
2015,07,19,04,59,17.30
2015,07,19,05,00,17.30
2015,07,19,05,01,17.30
2015,07,19,05,02,17.30
2015,07,19,05,03,17.30
2015,07,19,05,04,17.30
2015,07,19,05,05,17.30
2015,07,19,05,06,17.30
2015,07,19,05,07,17.20
2015,07,19,05,08,17.20
2015,07,19,05,09,17.20
2015,07,19,05,10,17.20
2015,07,19,05,11,17.20
2015,07,19,05,12,17.20
2015,07,19,05,13,17.20
2015,07,19,05,14,17.20
2015,07,19,05,15,17.10
2015,07,19,05,16,17.10
2015,07,19,05,17,17.10
2015,07,19,05,18,17.10
2015,07,19,05,19,17.10
2015,07,19,05,20,17.10
2015,07,19,05,21,17.10
2015,07,19,05,22,17.10
2015,07,19,05,23,17.10
2015,07,19,05,24,17.10
2015,07,19,05,25,17.10
2015,07,19,05,26,17.10
2015,07,19,05,27,17.20
2015,07,19,05,28,17.20
2015,07,19,05,29,17.20
2015,07,19,05,30,17.20
2015,07,19,05,31,17.20
2015,07,19,05,32,17.20
2015,07,19,05,33,17.20
2015,07,19,05,34,17.20
2015,07,19,05,35,17.20
2015,07,19,05,36,17.20
2015,07,19,05,37,17.20
2015,07,19,05,38,17.20
2015,07,19,05,39,17.20
2015,07,19,05,40,17.20
2015,07,19,05,41,17.20
2015,07,19,05,42,17.20
2015,07,19,05,43,17.20
2015,07,19,05,44,17.20
2015,07,19,05,45,17.10
2015,07,19,05,46,17.10
2015,07,19,05,47,17.10
2015,07,19,05,48,17.10
2015,07,19,05,49,17.20
2015,07,19,05,50,17.20
2015,07,19,05,51,17.20
2015,07,19,05,52,17.20
2015,07,19,05,53,17.20
2015,07,19,05,54,17.30
2015,07,19,05,55,17.30
2015,07,19,05,56,17.30
2015,07,19,05,57,17.40
2015,07,19,05,58,17.40
2015,07,19,05,59,17.40
2015,07,19,06,00,17.40
2015,07,19,06,01,17.40
2015,07,19,06,02,17.40
2015,07,19,06,03,17.40
2015,07,19,06,04,17.40
2015,07,19,06,05,17.40
2015,07,19,06,06,17.40
2015,07,19,06,07,17.30
2015,07,19,06,08,17.30
2015,07,19,06,09,17.30
2015,07,19,06,10,17.30
2015,07,19,06,11,17.30
2015,07,19,06,12,17.30
2015,07,19,06,13,17.30
2015,07,19,06,14,17.30
2015,07,19,06,15,17.40
2015,07,19,06,16,17.50
2015,07,19,06,17,17.50
2015,07,19,06,18,17.60
2015,07,19,06,19,17.60
2015,07,19,06,20,17.70
2015,07,19,06,21,17.70
2015,07,19,06,22,17.70
2015,07,19,06,23,17.70
2015,07,19,06,24,17.70
2015,07,19,06,25,17.70
2015,07,19,06,26,17.70
2015,07,19,06,27,17.80
2015,07,19,06,28,17.80
2015,07,19,06,29,17.80
2015,07,19,06,30,17.90
2015,07,19,06,31,17.90
2015,07,19,06,32,18.00
2015,07,19,06,33,18.10
2015,07,19,06,34,18.10
2015,07,19,06,35,18.20
2015,07,19,06,36,18.20
2015,07,19,06,37,18.30
2015,07,19,06,38,18.40
2015,07,19,06,39,18.40
2015,07,19,06,40,18.50
2015,07,19,06,41,18.60
2015,07,19,06,42,18.70
2015,07,19,06,43,18.70
2015,07,19,06,44,18.80
2015,07,19,06,45,18.80
2015,07,19,06,46,18.90
2015,07,19,06,47,18.90
2015,07,19,06,48,19.00
2015,07,19,06,49,19.10
2015,07,19,06,50,19.10
2015,07,19,06,51,19.20
2015,07,19,06,52,19.20
2015,07,19,06,53,19.30
2015,07,19,06,54,19.40
2015,07,19,06,55,19.50
2015,07,19,06,56,19.50
2015,07,19,06,57,19.60
2015,07,19,06,58,19.70
2015,07,19,06,59,19.70
2015,07,19,07,00,19.80
2015,07,19,07,01,19.80
2015,07,19,07,02,19.80
2015,07,19,07,03,19.80
2015,07,19,07,04,19.90
2015,07,19,07,05,19.90
2015,07,19,07,06,20.00
2015,07,19,07,07,20.00
2015,07,19,07,08,20.10
2015,07,19,07,09,20.20
2015,07,19,07,10,20.30
2015,07,19,07,11,20.30
2015,07,19,07,12,20.40
2015,07,19,07,13,20.50
2015,07,19,07,14,20.60
2015,07,19,07,15,20.60
2015,07,19,07,16,20.70
2015,07,19,07,17,20.70
2015,07,19,07,18,20.80
2015,07,19,07,19,20.90
2015,07,19,07,20,21.00
2015,07,19,07,21,21.00
2015,07,19,07,22,21.10
2015,07,19,07,23,21.20
2015,07,19,07,24,21.20
2015,07,19,07,25,21.30
2015,07,19,07,26,21.30
2015,07,19,07,27,21.30
2015,07,19,07,28,21.30
2015,07,19,07,29,21.30
2015,07,19,07,30,21.30
2015,07,19,07,31,21.30
2015,07,19,07,32,21.30
2015,07,19,07,33,21.20
2015,07,19,07,34,21.20
2015,07,19,07,35,21.20
2015,07,19,07,36,21.20
2015,07,19,07,37,21.10
2015,07,19,07,38,21.10
2015,07,19,07,39,21.10
2015,07,19,07,40,21.10
2015,07,19,07,41,21.10
2015,07,19,07,42,21.20
2015,07,19,07,43,21.30
2015,07,19,07,44,21.40
2015,07,19,07,45,21.40
2015,07,19,07,46,21.40
2015,07,19,07,47,21.50
2015,07,19,07,48,21.50
2015,07,19,07,49,21.60
2015,07,19,07,50,21.60
2015,07,19,07,51,21.60
2015,07,19,07,52,21.60
2015,07,19,07,53,21.60
2015,07,19,07,54,21.60
2015,07,19,07,55,21.70
2015,07,19,07,56,21.70
2015,07,19,07,57,21.70
2015,07,19,07,58,21.80
2015,07,19,07,59,21.80
2015,07,19,08,00,21.90
2015,07,19,08,01,22.00
2015,07,19,08,02,22.00
2015,07,19,08,03,22.10
2015,07,19,08,04,22.20
2015,07,19,08,05,22.40
2015,07,19,08,06,22.50
2015,07,19,08,07,22.70
2015,07,19,08,08,22.80
2015,07,19,08,09,22.80
2015,07,19,08,10,22.70
2015,07,19,08,11,22.70
2015,07,19,08,12,22.70
2015,07,19,08,13,22.70
2015,07,19,08,14,22.70
2015,07,19,08,15,22.70
2015,07,19,08,16,22.60
2015,07,19,08,17,22.50
2015,07,19,08,18,22.50
2015,07,19,08,19,22.40
2015,07,19,08,20,22.40
2015,07,19,08,21,22.50
2015,07,19,08,22,22.60
2015,07,19,08,23,22.70
2015,07,19,08,24,22.70
2015,07,19,08,25,22.80
2015,07,19,08,26,22.80
2015,07,19,08,27,22.80
2015,07,19,08,28,22.90
2015,07,19,08,29,22.90
2015,07,19,08,30,22.90
2015,07,19,08,31,23.00
2015,07,19,08,32,23.00
2015,07,19,08,33,23.20
2015,07,19,08,34,23.20
2015,07,19,08,35,23.30
2015,07,19,08,36,23.30
2015,07,19,08,37,23.20
2015,07,19,08,38,23.20
2015,07,19,08,39,23.20
2015,07,19,08,40,23.30
2015,07,19,08,41,23.40
2015,07,19,08,42,23.50
2015,07,19,08,43,23.70
2015,07,19,08,44,23.90
2015,07,19,08,45,24.00
2015,07,19,08,46,24.10
2015,07,19,08,47,24.10
2015,07,19,08,48,24.10
2015,07,19,08,49,24.10
2015,07,19,08,50,24.10
2015,07,19,08,51,24.10
2015,07,19,08,52,24.20
2015,07,19,08,53,24.20
2015,07,19,08,54,24.20
2015,07,19,08,55,24.20
2015,07,19,08,56,24.20
2015,07,19,08,57,24.10
2015,07,19,08,58,24.00
2015,07,19,08,59,24.00
2015,07,19,09,00,23.90
2015,07,19,09,01,24.00
2015,07,19,09,02,24.10
2015,07,19,09,03,24.10
2015,07,19,09,04,24.10
2015,07,19,09,05,24.00
2015,07,19,09,06,24.00
2015,07,19,09,07,24.10
2015,07,19,09,08,24.10
2015,07,19,09,09,24.20
2015,07,19,09,10,24.30
2015,07,19,09,11,24.40
2015,07,19,09,12,24.40
2015,07,19,09,13,24.40
2015,07,19,09,14,24.40
2015,07,19,09,15,24.40
2015,07,19,09,16,24.40
2015,07,19,09,17,24.50
2015,07,19,09,18,24.60
2015,07,19,09,19,24.70
2015,07,19,09,20,24.70
2015,07,19,09,21,24.70
2015,07,19,09,22,24.70
2015,07,19,09,23,24.70
2015,07,19,09,24,24.60
2015,07,19,09,25,24.60
2015,07,19,09,26,24.70
2015,07,19,09,27,24.70
2015,07,19,09,28,24.80
2015,07,19,09,29,24.80
2015,07,19,09,30,24.80
2015,07,19,09,31,24.80
2015,07,19,09,32,24.90
2015,07,19,09,33,24.90
2015,07,19,09,34,24.90
2015,07,19,09,35,24.90
2015,07,19,09,36,24.90
2015,07,19,09,37,24.90
2015,07,19,09,38,25.00
2015,07,19,09,39,25.10
2015,07,19,09,40,25.30
2015,07,19,09,41,25.40
2015,07,19,09,42,25.40
2015,07,19,09,43,25.40
2015,07,19,09,44,25.40
2015,07,19,09,45,25.40
2015,07,19,09,46,25.40
2015,07,19,09,47,25.40
2015,07,19,09,48,25.30
2015,07,19,09,49,25.20
2015,07,19,09,50,25.20
2015,07,19,09,51,25.20
2015,07,19,09,52,25.20
2015,07,19,09,53,25.20
2015,07,19,09,54,25.10
2015,07,19,09,55,25.00
2015,07,19,09,56,25.10
2015,07,19,09,57,25.20
2015,07,19,09,58,25.20
2015,07,19,09,59,25.30
2015,07,19,10,00,25.30
2015,07,19,10,01,25.30
2015,07,19,10,02,25.30
2015,07,19,10,03,25.30
2015,07,19,10,04,25.40
2015,07,19,10,05,25.30
2015,07,19,10,06,25.30
2015,07,19,10,07,25.40
2015,07,19,10,08,25.50
2015,07,19,10,09,25.50
2015,07,19,10,10,25.60
2015,07,19,10,11,25.50
2015,07,19,10,12,25.60
2015,07,19,10,13,25.60
2015,07,19,10,14,25.60
2015,07,19,10,15,25.70
2015,07,19,10,16,25.60
2015,07,19,10,17,25.60
2015,07,19,10,18,25.60
2015,07,19,10,19,25.50
2015,07,19,10,20,25.50
2015,07,19,10,21,25.40
2015,07,19,10,22,25.40
2015,07,19,10,23,25.40
2015,07,19,10,24,25.40
2015,07,19,10,25,25.40
2015,07,19,10,26,25.40
2015,07,19,10,27,25.40
2015,07,19,10,28,25.50
2015,07,19,10,29,25.50
2015,07,19,10,30,25.50
2015,07,19,10,31,25.50
2015,07,19,10,32,25.50
2015,07,19,10,33,25.50
2015,07,19,10,34,25.50
2015,07,19,10,35,25.60
2015,07,19,10,36,25.50
2015,07,19,10,37,25.50
2015,07,19,10,38,25.50
2015,07,19,10,39,25.50
2015,07,19,10,40,25.60
2015,07,19,10,41,25.50
2015,07,19,10,42,25.50
2015,07,19,10,43,25.50
2015,07,19,10,44,25.60
2015,07,19,10,45,25.50
2015,07,19,10,46,25.60
2015,07,19,10,47,25.70
2015,07,19,10,48,25.70
2015,07,19,10,49,25.70
2015,07,19,10,50,25.80
2015,07,19,10,51,25.80
2015,07,19,10,52,25.80
2015,07,19,10,53,25.70
2015,07,19,10,54,25.50
2015,07,19,10,55,25.40
2015,07,19,10,56,25.20
2015,07,19,10,57,25.20
2015,07,19,10,58,25.30
2015,07,19,10,59,25.40
2015,07,19,11,00,25.40
2015,07,19,11,01,25.40
2015,07,19,11,02,25.30
2015,07,19,11,03,25.20
2015,07,19,11,04,25.20
2015,07,19,11,05,25.10
2015,07,19,11,06,25.00
2015,07,19,11,07,24.90
2015,07,19,11,08,24.80
2015,07,19,11,09,24.80
2015,07,19,11,10,24.70
2015,07,19,11,11,24.70
2015,07,19,11,12,24.70
2015,07,19,11,13,24.60
2015,07,19,11,14,24.70
2015,07,19,11,15,24.70
2015,07,19,11,16,24.80
2015,07,19,11,17,24.80
2015,07,19,11,18,24.80
2015,07,19,11,19,24.90
2015,07,19,11,20,25.00
2015,07,19,11,21,25.10
2015,07,19,11,22,25.10
2015,07,19,11,23,25.20
2015,07,19,11,24,25.20
2015,07,19,11,25,25.20
2015,07,19,11,26,25.20
2015,07,19,11,27,25.30
2015,07,19,11,28,25.50
2015,07,19,11,29,25.70
2015,07,19,11,30,25.90
2015,07,19,11,31,26.00
2015,07,19,11,32,26.20
2015,07,19,11,33,26.40
2015,07,19,11,34,26.60
2015,07,19,11,35,26.70
2015,07,19,11,36,26.70
2015,07,19,11,37,26.60
2015,07,19,11,38,26.60
2015,07,19,11,39,26.70
2015,07,19,11,40,26.70
2015,07,19,11,41,26.60
2015,07,19,11,42,26.60
2015,07,19,11,43,26.70
2015,07,19,11,44,26.70
2015,07,19,11,45,26.70
2015,07,19,11,46,26.80
2015,07,19,11,47,26.90
2015,07,19,11,48,26.90
2015,07,19,11,49,26.90
2015,07,19,11,50,26.80
2015,07,19,11,51,26.70
2015,07,19,11,52,26.60
2015,07,19,11,53,26.30
2015,07,19,11,54,26.30
2015,07,19,11,55,26.50
2015,07,19,11,56,26.70
2015,07,19,11,57,26.90
2015,07,19,11,58,27.10
2015,07,19,11,59,27.10
2015,07,19,12,00,27.20
2015,07,19,12,01,27.40
2015,07,19,12,02,27.50
2015,07,19,12,03,27.40
2015,07,19,12,04,27.20
2015,07,19,12,05,27.00
2015,07,19,12,06,26.90
2015,07,19,12,07,26.90
2015,07,19,12,08,27.00
2015,07,19,12,09,27.00
2015,07,19,12,10,27.10
2015,07,19,12,11,27.10
2015,07,19,12,12,27.10
2015,07,19,12,13,27.10
2015,07,19,12,14,27.20
2015,07,19,12,15,27.20
2015,07,19,12,16,27.10
2015,07,19,12,17,27.10
2015,07,19,12,18,27.10
2015,07,19,12,19,27.20
2015,07,19,12,20,27.10
2015,07,19,12,21,27.00
2015,07,19,12,22,26.90
2015,07,19,12,23,26.80
2015,07,19,12,24,26.70
2015,07,19,12,25,26.50
2015,07,19,12,26,26.40
2015,07,19,12,27,26.30
2015,07,19,12,28,26.40
2015,07,19,12,29,26.60
2015,07,19,12,30,26.80
2015,07,19,12,31,27.00
2015,07,19,12,32,27.10
2015,07,19,12,33,27.10
2015,07,19,12,34,27.30
2015,07,19,12,35,27.40
2015,07,19,12,36,27.40
2015,07,19,12,37,27.40
2015,07,19,12,38,27.40
2015,07,19,12,39,27.40
2015,07,19,12,40,27.40
2015,07,19,12,41,27.40
2015,07,19,12,42,27.30
2015,07,19,12,43,27.30
2015,07,19,12,44,27.30
2015,07,19,12,45,27.50
2015,07,19,12,46,27.70
2015,07,19,12,47,27.80
2015,07,19,12,48,28.00
2015,07,19,12,49,28.10
2015,07,19,12,50,28.30
2015,07,19,12,51,28.30
2015,07,19,12,52,28.20
2015,07,19,12,53,28.10
2015,07,19,12,54,28.10
2015,07,19,12,55,28.10
2015,07,19,12,56,28.20
2015,07,19,12,57,28.20
2015,07,19,12,58,28.20
2015,07,19,12,59,28.10
2015,07,19,13,00,28.00
2015,07,19,13,01,27.90
2015,07,19,13,02,27.90
2015,07,19,13,03,27.90
2015,07,19,13,04,28.00
2015,07,19,13,05,28.00
2015,07,19,13,06,27.90
2015,07,19,13,07,28.00
2015,07,19,13,08,28.10
2015,07,19,13,09,28.00
2015,07,19,13,10,27.90
2015,07,19,13,11,27.80
2015,07,19,13,12,27.70
2015,07,19,13,13,27.80
2015,07,19,13,14,27.80
2015,07,19,13,15,27.80
2015,07,19,13,16,27.90
2015,07,19,13,17,28.20
2015,07,19,13,18,28.30
2015,07,19,13,19,28.10
2015,07,19,13,20,27.90
2015,07,19,13,21,27.90
2015,07,19,13,22,27.80
2015,07,19,13,23,27.80
2015,07,19,13,24,27.70
2015,07,19,13,25,27.80
2015,07,19,13,26,27.80
2015,07,19,13,27,27.70
2015,07,19,13,28,27.80
2015,07,19,13,29,27.90
2015,07,19,13,30,28.00
2015,07,19,13,31,28.00
2015,07,19,13,32,28.00
2015,07,19,13,33,28.00
2015,07,19,13,34,28.10
2015,07,19,13,35,28.10
2015,07,19,13,36,28.30
2015,07,19,13,37,28.40
2015,07,19,13,38,28.50
2015,07,19,13,39,28.60
2015,07,19,13,40,28.80
2015,07,19,13,41,28.80
2015,07,19,13,42,28.70
2015,07,19,13,43,28.70
2015,07,19,13,44,28.70
2015,07,19,13,45,28.70
2015,07,19,13,46,28.70
2015,07,19,13,47,28.70
2015,07,19,13,48,28.60
2015,07,19,13,49,28.50
2015,07,19,13,50,28.50
2015,07,19,13,51,28.60
2015,07,19,13,52,28.60
2015,07,19,13,53,28.60
2015,07,19,13,54,28.70
2015,07,19,13,55,28.60
2015,07,19,13,56,28.50
2015,07,19,13,57,28.40
2015,07,19,13,58,28.50
2015,07,19,13,59,28.60
2015,07,19,14,00,28.70
2015,07,19,14,01,28.70
2015,07,19,14,02,28.90
2015,07,19,14,03,29.00
2015,07,19,14,04,29.00
2015,07,19,14,05,29.00
2015,07,19,14,06,28.90
2015,07,19,14,07,28.80
2015,07,19,14,08,28.80
2015,07,19,14,09,28.80
2015,07,19,14,10,28.90
2015,07,19,14,11,29.00
2015,07,19,14,12,28.90
2015,07,19,14,13,28.90
2015,07,19,14,14,28.90
2015,07,19,14,15,29.00
2015,07,19,14,16,29.10
2015,07,19,14,17,29.10
2015,07,19,14,18,29.20
2015,07,19,14,19,29.20
2015,07,19,14,20,29.20
2015,07,19,14,21,29.20
2015,07,19,14,22,29.20
2015,07,19,14,23,29.20
2015,07,19,14,24,29.10
2015,07,19,14,25,29.20
2015,07,19,14,26,29.20
2015,07,19,14,27,29.30
2015,07,19,14,28,29.40
2015,07,19,14,29,29.40
2015,07,19,14,30,29.50
2015,07,19,14,31,29.60
2015,07,19,14,32,29.70
2015,07,19,14,33,29.60
2015,07,19,14,34,29.70
2015,07,19,14,35,29.80
2015,07,19,14,36,29.80
2015,07,19,14,37,29.80
2015,07,19,14,38,29.80
2015,07,19,14,39,29.80
2015,07,19,14,40,29.80
2015,07,19,14,41,29.90
2015,07,19,14,42,30.00
2015,07,19,14,43,29.90
2015,07,19,14,44,30.00
2015,07,19,14,45,30.10
2015,07,19,14,46,30.20
2015,07,19,14,47,30.30
2015,07,19,14,48,30.30
2015,07,19,14,49,30.20
2015,07,19,14,50,30.20
2015,07,19,14,51,30.00
2015,07,19,14,52,29.90
2015,07,19,14,53,29.90
2015,07,19,14,54,29.80
2015,07,19,14,55,29.80
2015,07,19,14,56,29.80
2015,07,19,14,57,29.80
2015,07,19,14,58,29.70
2015,07,19,14,59,29.70
2015,07,19,15,00,29.70
2015,07,19,15,01,29.80
2015,07,19,15,02,29.70
2015,07,19,15,03,29.70
2015,07,19,15,04,29.70
2015,07,19,15,05,29.90
2015,07,19,15,06,30.10
2015,07,19,15,07,30.10
2015,07,19,15,08,30.00
2015,07,19,15,09,30.00
2015,07,19,15,10,29.90
2015,07,19,15,11,29.90
2015,07,19,15,12,29.80
2015,07,19,15,13,29.80
2015,07,19,15,14,29.80
2015,07,19,15,15,29.80
2015,07,19,15,16,29.80
2015,07,19,15,17,29.90
2015,07,19,15,18,29.90
2015,07,19,15,19,29.90
2015,07,19,15,20,29.80
2015,07,19,15,21,29.80
2015,07,19,15,22,29.90
2015,07,19,15,23,29.90
2015,07,19,15,24,30.00
2015,07,19,15,25,30.10
2015,07,19,15,26,30.20
2015,07,19,15,27,30.30
2015,07,19,15,28,30.30
2015,07,19,15,29,30.20
2015,07,19,15,30,30.10
2015,07,19,15,31,30.20
2015,07,19,15,32,30.30
2015,07,19,15,33,30.40
2015,07,19,15,34,30.40
2015,07,19,15,35,30.50
2015,07,19,15,36,30.50
2015,07,19,15,37,30.50
2015,07,19,15,38,30.50
2015,07,19,15,39,30.40
2015,07,19,15,40,30.30
2015,07,19,15,41,30.40
2015,07,19,15,42,30.50
2015,07,19,15,43,30.60
2015,07,19,15,44,30.60
2015,07,19,15,45,30.50
2015,07,19,15,46,30.50
2015,07,19,15,47,30.50
2015,07,19,15,48,30.40
2015,07,19,15,49,30.40
2015,07,19,15,50,30.30
2015,07,19,15,51,30.20
2015,07,19,15,52,30.20
2015,07,19,15,53,30.10
2015,07,19,15,54,30.20
2015,07,19,15,55,30.20
2015,07,19,15,56,30.20
2015,07,19,15,57,30.30
2015,07,19,15,58,30.40
2015,07,19,15,59,30.60
2015,07,19,16,00,30.80
2015,07,19,16,01,30.90
2015,07,19,16,02,30.90
2015,07,19,16,03,31.00
2015,07,19,16,04,30.90
2015,07,19,16,05,30.90
2015,07,19,16,06,30.80
2015,07,19,16,07,30.70
2015,07,19,16,08,30.50
2015,07,19,16,09,30.40
2015,07,19,16,10,30.30
2015,07,19,16,11,30.30
2015,07,19,16,12,30.40
2015,07,19,16,13,30.40
2015,07,19,16,14,30.50
2015,07,19,16,15,30.60
2015,07,19,16,16,30.70
2015,07,19,16,17,30.90
2015,07,19,16,18,30.90
2015,07,19,16,19,30.80
2015,07,19,16,20,30.80
2015,07,19,16,21,30.80
2015,07,19,16,22,30.80
2015,07,19,16,23,30.90
2015,07,19,16,24,30.90
2015,07,19,16,25,30.90
2015,07,19,16,26,31.00
2015,07,19,16,27,30.90
2015,07,19,16,28,30.80
2015,07,19,16,29,30.70
2015,07,19,16,30,30.70
2015,07,19,16,31,30.60
2015,07,19,16,32,30.80
2015,07,19,16,33,30.90
2015,07,19,16,34,30.90
2015,07,19,16,35,31.00
2015,07,19,16,36,31.10
2015,07,19,16,37,31.00
2015,07,19,16,38,31.00
2015,07,19,16,39,31.10
2015,07,19,16,40,31.00
2015,07,19,16,41,31.00
2015,07,19,16,42,31.10
2015,07,19,16,43,31.00
2015,07,19,16,44,30.90
2015,07,19,16,45,30.90
2015,07,19,16,46,30.90
2015,07,19,16,47,30.90
2015,07,19,16,48,31.00
2015,07,19,16,49,31.20
2015,07,19,16,50,31.30
2015,07,19,16,51,31.50
2015,07,19,16,52,31.60
2015,07,19,16,53,31.60
2015,07,19,16,54,31.60
2015,07,19,16,55,31.70
2015,07,19,16,56,31.70
2015,07,19,16,57,31.80
2015,07,19,16,58,31.80
2015,07,19,16,59,31.80
2015,07,19,17,00,31.80
2015,07,19,17,01,31.80
2015,07,19,17,02,31.80
2015,07,19,17,03,31.70
2015,07,19,17,04,31.70
2015,07,19,17,05,31.70
2015,07,19,17,06,31.70
2015,07,19,17,07,31.70
2015,07,19,17,08,31.70
2015,07,19,17,09,31.70
2015,07,19,17,10,31.80
2015,07,19,17,11,31.80
2015,07,19,17,12,31.90
2015,07,19,17,13,31.90
2015,07,19,17,14,31.90
2015,07,19,17,15,31.80
2015,07,19,17,16,31.80
2015,07,19,17,17,31.90
2015,07,19,17,18,31.90
2015,07,19,17,19,32.00